Regional Weather Roundup
Issued by NWS Charleston, WV

Home | Current Version | Previous Version | Graphics & Text | Print | Product List | Glossary On
Versions: 1 2 3 4 5 6 7 8 9 10 11 12 13 14 15 16 17 18 19 20 21 22 23 24 25 26 27 28 29 30 31 32 33 34 35 36 37 38 39 40 41 42 43 44 45 46 47 48 49 50
000
ASUS41 KRLX 281710
RWRRLX
West Virginia Regional Weather Roundup
National Weather Service Charleston WV
100 PM EDT THU MAY 28 2015

Note: "fair" indicates few or no clouds below 12,000 feet with no
significant weather and/or obstructions to visibility.

WVZ003-281800-
Northern Panhandle of West Virginia

CITY           SKY/WX    TMP DP  RH WIND       PRES   REMARKS
WHEELING       SUNNY     73  61  64 N9        30.26S
$$

WVZ009-281800-
Northwest West Virginia

CITY           SKY/WX    TMP DP  RH WIND       PRES   REMARKS
PARKERSBURG    PTSUNNY   79  63  57 CALM      30.26F
$$

WVZ006-281800-
Western West Virginia

CITY           SKY/WX    TMP DP  RH WIND       PRES   REMARKS
HUNTINGTON     MOSUNNY   78  61  55 CALM      30.23F
$$

WVZ015-281800-
West Central West Virginia

CITY           SKY/WX    TMP DP  RH WIND       PRES   REMARKS
CHARLESTON     PTSUNNY   81  62  52 W3        30.23F
$$

WVZ022-031-281800-
North Central West Virginia

CITY           SKY/WX    TMP DP  RH WIND       PRES   REMARKS
CLARKSBURG     MOSUNNY   78  63  59 VRB3      30.25S
MORGANTOWN     MOSUNNY   80  59  48 N7        30.27S
$$

WVZ025-035-042-045-281800-
Southern West Virginia

CITY           SKY/WX    TMP DP  RH WIND       PRES   REMARKS
BECKLEY        CLOUDY    72  58  61 NE5       30.31F
LOGAN            N/A     75  64  69 CALM      30.24S
BLUEFIELD      CLOUDY    77  61  57 NE7       30.32F
LEWISBURG      PTSUNNY   78  57  47 CALM      30.29F
$$

WVZ047-281800-
Northern Mountains of West Virginia

CITY           SKY/WX    TMP DP  RH WIND       PRES   REMARKS
ELKINS         MOSUNNY   79  58  48 CALM      30.28F
$$

WVZ052-281800-
Eastern Panhandle of West Virginia

CITY           SKY/WX    TMP DP  RH WIND       PRES   REMARKS
MARTINSBURG    MOSUNNY   84  63  49 N7        30.21F
PETERSBURG     MOSUNNY   85  56  37 N3        30.22F
$$


USA.gov is the U.S. government's official web portal to all federal, state and local government web resources and services.